Content
SEND FEEDBACK

Daily
Averages
Monthly
Summary
Canada

MONTREAL, QUEBEC


Home > North America > Canada > Quebec
Elevation: 118 feet     Latitude: 45 28N     Longitude: 073 45W

WEATHER
 
SELECT A DAY
Number of Records: 203,439;   Date Range: 1/1/95 - 12/20/14
 
SHARE

PRINT THIS DATA

[ ← Previous Day ]
WEATHER ALMANAC - FEBRUARY 14, 2013
[ Next Day → ]
[ °C ]   °F
Weather ElementAverageHighLow
Temperature31.3 °F33.8 °F (1:00 pm)28.4 °F (3:00 am)
Dewpoint21.4 °F26.6 °F (1:00 am) (7:00 pm)
Humidity70.3 %93 % (3:00 am)47 % (7:00 pm)
Barometer27.82 in29.93 in (6:00 pm) (7:00 pm)
Wind Speed6.7 mph11.5 mph (2:00 pm)
Weather ElementAverage
Visibility15.3 mi
Wind DirectionSSW (197.6 °)

Weather ElementTotal
Precipitation---
Heating Degree Days33.9 (Base 65)
Averaged from 29 records on February 14, 2013
WEATHER CONDITIONS BREAKOUT
WIND DIRECTION BREAKOUT
WEATHER BY HOUR - FEBRUARY 14, 2013
[ °C ]   °F
Local TimeTemperatureDewpointHumidityBarometerVisibilityWind DirectionWind SpeedGust SpeedPrecipitationEventsConditions
1:00 AM29.0 °F26.0 °F84 %29.79 in15.0 miSSW (210°)4.6 mphPartly Cloudy
1:00 AM30.2 °F26.6 °F86 %29.79 in15.0 miSSW (210°)4.6 mphOvercast
2:00 AM30.2 °F26.6 °F86 %29.79 in15.0 miNNW (330°)2.3 mphOvercast
3:00 AM28.4 °F26.6 °F93 %29.78 in15.0 miSW (230°)2.3 mphOvercast
4:00 AM30.2 °F24.8 °F80 %29.81 in15.0 miWSW (240°)3.5 mphOvercast
5:00 AM30.2 °F24.8 °F80 %29.83 in15.0 miSSW (210°)4.6 mphOvercast
6:00 AM30.2 °F23.0 °F75 %29.84 in15.0 miSW (220°)5.8 mphOvercast
7:00 AM30.2 °F23.0 °F75 %29.86 in12.0 miSW (220°)6.9 mphOvercast
7:00 AM29.0 °F22.0 °F67 %29.86 in12.0 miSW (220°)6.9 mphOvercast
7:39 AM30.2 °F0.0 °F15.0 miSW (220°)4.6 mphSnowLight Snow
8:00 AM30.2 °F23.0 °F75 %29.88 in15.0 miSSW (200°)3.5 mphSnowLight Snow
8:21 AM30.2 °F0.0 °F15.0 miSSW (200°)4.6 mphOvercast
9:00 AM30.2 °F23.0 °F75 %29.89 in15.0 miSSW (200°)5.8 mphOvercast
10:00 AM30.2 °F23.0 °F75 %29.91 in15.0 miSSW (200°)5.8 mphOvercast
11:00 AM32.0 °F24.8 °F75 %29.92 in15.0 miSSW (210°)8.1 mphOvercast
12:00 PM32.0 °F24.8 °F75 %29.91 in15.0 miSSW (200°)9.2 mphOvercast
1:00 PM33.0 °F23.0 °F55 %29.90 in15.0 miSSW (210°)9.2 mphPartly Cloudy
1:00 PM33.8 °F23.0 °F65 %29.90 in15.0 miSSW (210°)9.2 mphOvercast
2:00 PM33.8 °F23.0 °F65 %29.90 in15.0 miSSW (210°)11.5 mphOvercast
3:00 PM33.8 °F21.2 °F60 %29.90 in15.0 miSW (220°)10.4 mphMostly Cloudy
4:00 PM33.8 °F21.2 °F60 %29.90 in15.0 miSSW (200°)5.8 mphMostly Cloudy
5:00 PM33.8 °F19.4 °F56 %29.90 in30.0 miSouth (170°)6.9 mphMostly Cloudy
6:00 PM32.0 °F21.2 °F64 %29.93 in15.0 miSSE (160°)5.8 mphMostly Cloudy
7:00 PM33.0 °F20.0 °F47 %29.93 in15.0 miSSE (150°)10.4 mphMostly Cloudy
7:00 PM32.0 °F21.2 °F64 %29.93 in15.0 miSSE (150°)10.4 mphMostly Cloudy
8:00 PM32.0 °F21.2 °F64 %29.92 in15.0 miSE (130°)9.2 mphMostly Cloudy
9:00 PM32.0 °F21.2 °F64 %29.91 in15.0 miSE (140°)9.2 mphOvercast
10:00 PM32.0 °F21.2 °F64 %29.90 in15.0 miESE (120°)6.9 mphOvercast
11:00 PM30.2 °F21.2 °F69 %29.89 in15.0 miSE (140°)6.9 mphMostly Cloudy
Hourly data recorded from CYUL, located miles away from Montreal, Quebec







STORIES FROM OUR PARTNERS